Jefferson, NC

8:25 AM EST on December 14, 2017 (GMT -0500)
Ashe County

Weather History for KGEV - November, 2012

Change the Weather History Date:

Friday, November 2, 2012

  Actual Average Record
Temperature  
Mean Temperature 46 °F -  
Max Temperature 50 °F 62 °F 77 °F (1971)
Min Temperature 41 °F 37 °F 17 °F (1993)
Degree Days  
Heating Degree Days 20    
Moisture  
Dew Point 23 °F    
Average Humidity 43    
Maximum Humidity 57    
Minimum Humidity 30    
Precipitation  
Precipitation 0.00 in - - ()
Sea Level Pressure  
Sea Level Pressure 29.86 in    
Wind  
Wind Speed 16 mph (NW)    
Max Wind Speed 25 mph    
Max Gust Speed 45 mph    
Visibility 10 miles    
Events      
Averages and records for this station are not official NWS values.
T = Trace of Precipitation, MM = Missing Value Source: NWS Daily Summary

Daily Weather History Graph

Daily Weather History Graph

Search for Another Location

Airport or City:

Trip Planner

Search our weather history database for the weather conditions in past years. The results will help you decide how hot, cold, wet, or windy it might be!

Date:

Astronomy

Nov. 02, 2012 Rise Set
Actual Time 7:50 AM EDT 6:27 PM EDT
Civil Twilight 7:23 AM EDT 6:54 PM EDT
Nautical Twilight 6:53 AM EDT 7:24 PM EDT
Astronomical Twilight 6:22 AM EDT 7:54 PM EDT
Moon 9:17 PM EDT (11/2) 11:06 AM EDT (11/2)
Length of Visible Light 11h 30m
Length of Day
10h 37m
Waning Gibbous, 87% of the Moon is Illuminated
Nov 2
Waning Gibbous
Nov 6
Last Quarter
Nov 13
New
Nov 20
First Quarter
Nov 28
Full

Hourly Weather History & Observations

Time (EDT) Temp. Windchill Dew Point Humidity Pressure Visibility Wind Dir Wind Speed Gust Speed Precip Events Conditions
12:15 AM 41.0 °F 30.9 °F 12.2 °F 31% 29.81 in 10.0 mi NW 24.2 mph 44.9 mph N/A   Clear
12:35 AM 41.0 °F 31.1 °F 14.0 °F 33% 29.81 in 10.0 mi NW 23.0 mph 34.5 mph N/A   Clear
12:55 AM 41.0 °F 31.1 °F 14.0 °F 33% 29.81 in 10.0 mi WNW 23.0 mph 35.7 mph N/A   Clear
1:15 AM 41.0 °F 31.9 °F 14.0 °F 33% 29.82 in 10.0 mi WNW 19.6 mph 42.6 mph N/A   Clear
1:35 AM 41.0 °F 31.9 °F 14.0 °F 33% 29.82 in 10.0 mi WNW 19.6 mph 27.6 mph N/A   Clear
2:15 AM 41.0 °F 31.9 °F 15.8 °F 36% 29.82 in 10.0 mi WNW 19.6 mph 26.5 mph N/A   Clear
2:35 AM 41.0 °F 31.9 °F 15.8 °F 36% 29.82 in 10.0 mi West 19.6 mph 29.9 mph N/A   Clear
2:55 AM 41.0 °F 35.8 °F 14.0 °F 33% 29.83 in 10.0 mi WNW 8.1 mph 18.4 mph N/A   Clear
3:15 AM 41.0 °F 35.8 °F 14.0 °F 33% 29.84 in 10.0 mi WNW 8.1 mph - N/A   Clear
3:55 AM 41.0 °F 33.5 °F 15.8 °F 36% 29.83 in 10.0 mi WNW 13.8 mph 21.9 mph N/A   Overcast
4:15 AM 41.0 °F 36.4 °F 17.6 °F 39% 29.83 in 10.0 mi WNW 6.9 mph 20.7 mph N/A   Overcast
4:35 AM 41.0 °F 33.9 °F 19.4 °F 42% 29.83 in 10.0 mi NW 12.7 mph 19.6 mph N/A   Overcast
4:55 AM 41.0 °F 35.2 °F 19.4 °F 42% 29.83 in 10.0 mi WNW 9.2 mph 18.4 mph N/A   Overcast
5:15 AM 41.0 °F 35.2 °F 21.2 °F 45% 29.82 in 10.0 mi NW 9.2 mph 24.2 mph N/A   Overcast
5:35 AM 42.8 °F 38.0 °F 21.2 °F 42% 29.82 in 10.0 mi WNW 8.1 mph 19.6 mph N/A   Overcast
5:55 AM 41.0 °F 32.5 °F 21.2 °F 45% 29.82 in 10.0 mi WNW 17.3 mph 23.0 mph N/A   Overcast
6:15 AM 41.0 °F 33.1 °F 23.0 °F 49% 29.83 in 10.0 mi WNW 15.0 mph 24.2 mph N/A   Overcast
6:35 AM 41.0 °F 32.5 °F 23.0 °F 49% 29.82 in 10.0 mi NW 17.3 mph 24.2 mph N/A   Overcast
7:15 AM 41.0 °F 32.5 °F 24.8 °F 53% 29.82 in 10.0 mi WNW 17.3 mph 27.6 mph N/A   Mostly Cloudy
7:55 AM 41.0 °F 30.9 °F 26.6 °F 57% 29.81 in 10.0 mi WNW 24.2 mph 32.2 mph N/A   Scattered Clouds
8:15 AM 41.0 °F 32.2 °F 26.6 °F 57% 29.81 in 10.0 mi WNW 18.4 mph 28.8 mph N/A   Scattered Clouds
8:35 AM 42.8 °F 34.8 °F 24.8 °F 49% 29.82 in 10.0 mi NW 17.3 mph 27.6 mph N/A   Scattered Clouds
8:55 AM 42.8 °F 34.5 °F 24.8 °F 49% 29.82 in 10.0 mi WNW 18.4 mph 25.3 mph N/A   Scattered Clouds
9:15 AM 42.8 °F 34.8 °F 26.6 °F 53% 29.82 in 10.0 mi WNW 17.3 mph 33.4 mph N/A   Clear
9:35 AM 42.8 °F 33.8 °F 26.6 °F 53% 29.82 in 10.0 mi WNW 21.9 mph 31.1 mph N/A   Scattered Clouds
10:15 AM 44.6 °F 36.9 °F 28.4 °F 53% 29.82 in 10.0 mi WNW 18.4 mph 29.9 mph N/A   Mostly Cloudy
10:35 AM 46.4 °F 38.5 °F 28.4 °F 50% 29.82 in 10.0 mi WNW 21.9 mph 38.0 mph N/A   Overcast
10:55 AM 46.4 °F 40.1 °F 28.4 °F 50% 29.82 in 10.0 mi WNW 15.0 mph 35.7 mph N/A   Overcast
11:15 AM 46.4 °F 39.5 °F 30.2 °F 53% 29.82 in 10.0 mi NW 17.3 mph 27.6 mph N/A   Overcast
11:35 AM 46.4 °F 40.7 °F 30.2 °F 53% 29.83 in 10.0 mi NW 12.7 mph 33.4 mph N/A   Overcast
11:55 AM 46.4 °F 42.4 °F 30.2 °F 53% 29.84 in 10.0 mi WNW 8.1 mph 25.3 mph N/A   Overcast
12:15 PM 46.4 °F 39.0 °F 30.2 °F 53% 29.84 in 10.0 mi NW 19.6 mph 38.0 mph N/A   Overcast
12:35 PM 46.4 °F 42.4 °F 30.2 °F 53% 29.85 in 10.0 mi NW 8.1 mph 26.5 mph N/A   Overcast
12:55 PM 46.4 °F 40.7 °F 30.2 °F 53% 29.84 in 10.0 mi NNW 12.7 mph 24.2 mph N/A   Overcast
1:15 PM 46.4 °F 39.2 °F 30.2 °F 53% 29.84 in 10.0 mi NNW 18.4 mph 32.2 mph N/A   Overcast
1:35 PM 48.2 °F - 30.2 °F 50% 29.84 in 10.0 mi NNW 16.1 mph 32.2 mph N/A   Mostly Cloudy
1:55 PM 48.2 °F - 30.2 °F 50% 29.84 in 10.0 mi NW 18.4 mph 31.1 mph N/A   Mostly Cloudy
2:15 PM 48.2 °F - 28.4 °F 46% 29.84 in 10.0 mi NNW 20.7 mph 29.9 mph N/A   Scattered Clouds
2:35 PM 48.2 °F - 23.0 °F 37% 29.84 in 10.0 mi NNW 21.9 mph 36.8 mph N/A   Clear
2:55 PM 48.2 °F - 21.2 °F 34% 29.85 in 10.0 mi NW 18.4 mph 27.6 mph N/A   Clear
3:15 PM 48.2 °F - 21.2 °F 34% 29.85 in 10.0 mi NW 19.6 mph 31.1 mph N/A   Clear
3:35 PM 50.0 °F - 21.2 °F 32% 29.85 in 10.0 mi NW 25.3 mph 34.5 mph N/A   Clear
3:55 PM 50.0 °F - 21.2 °F 32% 29.87 in 10.0 mi NNW 12.7 mph 23.0 mph N/A   Clear
4:15 PM 50.0 °F - 19.4 °F 30% 29.87 in 10.0 mi NNW 18.4 mph 25.3 mph N/A   Clear
4:35 PM 50.0 °F - 21.2 °F 32% 29.88 in 10.0 mi WNW 11.5 mph 24.2 mph N/A   Clear
4:55 PM 50.0 °F - 21.2 °F 32% 29.88 in 10.0 mi NW 10.4 mph 21.9 mph N/A   Clear
5:15 PM 48.2 °F - 21.2 °F 34% 29.88 in 10.0 mi NNW 11.5 mph 21.9 mph N/A   Clear
5:35 PM 48.2 °F - 21.2 °F 34% 29.89 in 10.0 mi WNW 10.4 mph 21.9 mph N/A   Clear
5:55 PM 46.4 °F 41.1 °F 21.2 °F 37% 29.89 in 10.0 mi NW 11.5 mph 23.0 mph N/A   Clear
6:15 PM 46.4 °F 41.5 °F 21.2 °F 37% 29.90 in 10.0 mi WNW 10.4 mph - N/A   Clear
6:35 PM 46.4 °F 39.8 °F 21.2 °F 37% 29.91 in 10.0 mi NW 16.1 mph 20.7 mph N/A   Clear
6:55 PM 46.4 °F 40.4 °F 23.0 °F 40% 29.91 in 10.0 mi NW 13.8 mph 25.3 mph N/A   Clear
7:15 PM 44.6 °F 39.2 °F 23.0 °F 43% 29.92 in 10.0 mi NW 10.4 mph 23.0 mph N/A   Clear
7:35 PM 44.6 °F 38.8 °F 23.0 °F 43% 29.93 in 10.0 mi NNW 11.5 mph 18.4 mph N/A   Clear
7:55 PM 44.6 °F 37.8 °F 23.0 °F 43% 29.93 in 10.0 mi NW 15.0 mph 21.9 mph N/A   Clear
8:15 PM 44.6 °F 39.2 °F 23.0 °F 43% 29.93 in 10.0 mi NW 10.4 mph 18.4 mph N/A   Clear
8:35 PM 44.6 °F 39.2 °F 23.0 °F 43% 29.93 in 10.0 mi NNW 10.4 mph 20.7 mph N/A   Clear
9:15 PM 42.8 °F 36.2 °F 23.0 °F 46% 29.94 in 10.0 mi NW 12.7 mph 16.1 mph N/A   Clear
9:35 PM 42.8 °F 38.6 °F 23.0 °F 46% 29.94 in 10.0 mi NNW 6.9 mph 18.4 mph N/A   Clear
9:55 PM 42.8 °F 38.6 °F 23.0 °F 46% 29.95 in 10.0 mi NNW 6.9 mph - N/A   Clear
10:15 PM 42.8 °F 37.5 °F 23.0 °F 46% 29.96 in 10.0 mi NNW 9.2 mph 19.6 mph N/A   Clear
10:35 PM 41.0 °F 35.2 °F 23.0 °F 49% 29.96 in 10.0 mi NNW 9.2 mph - N/A   Clear
10:55 PM 41.0 °F 36.4 °F 23.0 °F 49% 29.96 in 10.0 mi North 6.9 mph - N/A   Clear
11:15 PM 41.0 °F 36.4 °F 23.0 °F 49% 29.96 in 10.0 mi NNW 6.9 mph - N/A   Clear
11:35 PM 41.0 °F 37.1 °F 23.0 °F 49% 29.97 in 10.0 mi NNW 5.8 mph - N/A   Clear
11:55 PM 41.0 °F 34.3 °F 23.0 °F 49% 29.97 in 10.0 mi NNW 11.5 mph 18.4 mph N/A   Clear